CZ-6A DEB

Satellite information

Favourite Embed

Satellite Type and Status

DEBRISIN ORBIT

Key statistics

Satellite CZ-6A DEB at a glance.

Uptime

1129

Days in orbit

Revolutions

≈ 14.2

Per day

Orbit

SSO

Sun Synchronous Orbit

Inclination

98.8

Latest

Satellite identification and parameters

Extended collection of information and parameters for CZ-6A DEB.

Object identification

Identified? True

Debris? True

Object name: CZ-6A DEB

International designator: 2022-151AFZ

Object number (NORAD): 56649

Object ID (CCSDS): 56649

Country: PEOPLES REPUBLIC OF CHINA (PRC)

Current information (Y/N): Y

RCS size: SMALL

Orbital parameters

Period: 101.643 minutes

Inclination: 98.8347 deg

SMA: 7214.612 km

Apoapsis: 865.457 km

Periapsis: 807.497 km

RAAN: 351.8174 deg

Eccentricy: 0.0040169

Argument of periapsis: 133.5644 deg

Mean anomaly: 226.8877 deg

Mean motion: 14.16717633 rev/day

Mean motion (dot): 0.00003231 rev/day2

B* drag term: 0.0016252 1/REarth

Two-line elements (TLE)

Creation date: Dec. 12, 2025, 7:26 a.m.

Reference frame: TEME

Reference center: EARTH

Epoch: Dec. 11, 2025, 11:59 p.m. UTC

TLE line 0: 0 CZ-6A DEB

TLE line 1: 1 56649U 22151AFZ 25345.99997124 .00003231 00000-0 16252-2 0 9997

TLE line 2: 2 56649 98.8347 351.8174 0040169 133.5644 226.8877 14.16717633144341

Live tracking on map

Real-time ground track for satellite CZ-6A DEB.

In-orbit conjunctions

A list of the most updated potential collisions computed for object CZ-6A DEB.

Target Orbit TCA Probability of collision Miss distance Type
THOR ABLESTAR R/B LEO 2024-10-23 05:46:08 0.0001637106 641.0 (m) ROCKET BODY
SL-3 R/B LEO 2024-06-25 12:12:24 0.0006965456 49.0 (m) ROCKET BODY

Associated space launch

Chinese satellite reported for atmospheric/ocean/environmental/spatial parameter research purposes, details TBD.

CZ-6A DEB was lifted into orbit during the mission ‘Long March 6A | Yunhai 3’, on board a Long March 6A space rocket.

The launch took place on Nov. 11, 2022, 10:52 p.m. from Launch Complex 9A.

For more information about the launch, click the button.

Launch to space Long March 6A | Yunhai 3
Long March 6A | Yunhai 3

Agency: N/A

Status: Launch Successful

Launch date: Nov. 11, 2022, 10:52 p.m. UTC

Rocket: Long March 6A

Launch pad: Launch Complex 9A

Location: Taiyuan Satellite Launch Center, People's Republic of China

...

Latest news about this satellite

There are no fresh news available about this satellite. Check back as we update our databases every day.


Newsletter sign-up

Weekly statistics, charts and insights to help you stay on top of the space industry.